This demonstration page uses our WeatherBlox Daily Observations layout. Learn more.

39.92423, -83.80882

Hourly Observations for April 13, 2017

Temp ( °F °C ) Dew Point ( °F °C ) Humidity (%) Winds ( mph kmh ) Pressure ( in mb ) Visibility ( mi km ) Precip ( " mm )
12:56 am 00:56 Clear 49 9.4 40 4.4 71 71 E 5 7 30.37 1029 10 16.0934 0 0
1:56 am 01:56 Clear 48 8.9 39 3.9 71 71 E 5 7 30.38 1029 10 16.0934 0 0
2:56 am 02:56 Clear 45 7.2 38 3.3 77 77 E 5 7 30.37 1029 10 16.0934 0 0
3:56 am 03:56 Clear 46 7.8 40 4.4 79 79 E 9 15 30.35 1028 10 16.0934 0 0
4:56 am 04:56 Clear 45 7.2 38 3.3 77 77 ENE 7 11 30.36 1028 10 16.0934 0 0
5:56 am 05:56 Clear 45 7.2 39 3.9 80 80 E 10 17 30.35 1028 10 16.0934 0 0
6:56 am 06:56 Clear 44 6.7 38 3.3 79 79 E 10 17 30.36 1028 10 16.0934 0 0
7:56 am 07:56 Sunny 47 8.3 40 4.4 77 77 E 8 13 30.4 1029 10 16.0934 0 0
8:56 am 08:56 Sunny 50 10 41 5 71 71 E 10 17 30.39 1029 10 16.0934 0 0
9:56 am 09:56 Sunny 55 12.8 41 5 59 59 E 15 24 30.38 1029 10 16.0934 0 0
10:56 am 10:56 Sunny 58 14.4 41 5 53 53 ESE 14 22 30.39 1029 10 16.0934 0 0
11:56 am 11:56 Sunny 59 15 42 5.6 54 54 ESE 12 19 30.38 1029 10 16.0934 0 0
12:56 pm 12:56 Sunny 63 17.2 44 6.7 50 50 ESE 13 20 30.37 1028 10 16.0934 0 0
1:56 pm 13:56 Sunny 67 19.4 43 6.1 42 42 SE 15 24 30.33 1027 10 16.0934 0 0
2:56 pm 14:56 Sunny 67 19.4 42 5.6 41 41 ESE 13 20 30.32 1027 10 16.0934 0 0
3:56 pm 15:56 Partly Cloudy 67 19.4 41 5 39 39 SE 7 11 30.29 1026 10 16.0934 0 0
4:56 pm 16:56 Cloudy 66 18.9 42 5.6 42 42 ESE 10 17 30.25 1025 10 16.0934 0 0
5:56 pm 17:56 Cloudy 65 18.3 44 6.7 47 47 ESE 7 11 30.26 1025 10 16.0934 0 0
6:56 pm 18:56 Cloudy with Light Rain 63 17.2 48 8.9 58 58 E 5 7 30.27 1025 10 16.0934 0 0.0254
7:56 pm 19:56 Cloudy 61 16.1 44 6.7 54 54 E 8 13 30.26 1025 10 16.0934 0 0.0254
8:56 pm 20:56 Cloudy 59 15 45 7.2 60 60 E 10 17 30.26 1025 10 16.0934 0 0.0254
9:56 pm 21:56 Cloudy 58 14.4 44 6.7 60 60 E 13 20 30.27 1025 10 16.0934 0 0
10:56 pm 22:56 Cloudy 57 13.9 43 6.1 60 60 E 12 19 30.26 1025 10 16.0934 0 0
11:56 pm 23:56 Mostly Cloudy with Light Rain 56 13.3 42 5.6 60 60 ESE 12 19 30.27 1025 10 16.0934 0 0.0254

Powered by AerisWeather